This is the latest recevied weather packets stored in our database for station/object XE2VP-WX. If no packets are shown the sender has not sent any weather packets the latest 1 day(s).
| Time | Temp. | Humidity | Pressure | Rain* | Wind** | Luminosity | Snow |
|---|---|---|---|---|---|---|---|
| 1778015537 | 38.33° C | 17% | 935.7 hPa | 0 mm | 1.34 m/s, 226° | 752 W/m² | - |
| 1778015477 | 38.33° C | 17% | 935.7 hPa | 0 mm | 0.89 m/s, 234° | 737 W/m² | - |
| 1778015418 | 38.33° C | 18% | 935.7 hPa | 0 mm | 0.89 m/s, 222° | 743 W/m² | - |
| 1778015357 | 38.33° C | 18% | 935.8 hPa | 0 mm | 0.89 m/s, 230° | 768 W/m² | - |
| 1778015298 | 38.33° C | 18% | 935.8 hPa | 0 mm | 0.89 m/s, 193° | 764 W/m² | - |
| 1778015237 | 38.33° C | 18% | 935.8 hPa | 0 mm | 0.89 m/s, 226° | 733 W/m² | - |
| 1778015179 | 38.33° C | 17% | 935.8 hPa | 0 mm | 0.89 m/s, 226° | 758 W/m² | - |
| 1778015118 | 38.33° C | 18% | 935.8 hPa | 0 mm | 0.89 m/s, 224° | 746 W/m² | - |
| 1778014998 | 38.33° C | 18% | 935.9 hPa | 0 mm | 0.89 m/s, 34° | 769 W/m² | - |
| 1778014937 | 38.33° C | 18% | 935.9 hPa | 0 mm | 0.89 m/s, 225° | 779 W/m² | - |
| 1778014878 | 38.33° C | 18% | 935.9 hPa | 0 mm | 0.89 m/s, 222° | 749 W/m² | - |
| 1778014818 | 38.33° C | 18% | 935.9 hPa | 0 mm | 0.89 m/s, 238° | 784 W/m² | - |
| 1778014758 | 38.33° C | 18% | 935.9 hPa | 0 mm | 0.89 m/s, 226° | 787 W/m² | - |
| 1778014698 | 38.33° C | 18% | 935.9 hPa | 0 mm | 0.89 m/s, 226° | 804 W/m² | - |
| 1778014637 | 38.33° C | 18% | 935.9 hPa | 0 mm | 1.34 m/s, 226° | 830 W/m² | - |
| 1778014578 | 38.33° C | 18% | 936 hPa | 0 mm | 1.34 m/s, 225° | 837 W/m² | - |
| 1778014518 | 38.33° C | 18% | 936 hPa | 0 mm | 1.34 m/s, 225° | 783 W/m² | - |
| 1778014458 | 38.33° C | 18% | 936 hPa | 0 mm | 1.34 m/s, 217° | 775 W/m² | - |
| 1778014397 | 38.33° C | 18% | 936 hPa | 0 mm | 1.34 m/s, 226° | 857 W/m² | - |
| 1778014334 | 38.33° C | 18% | 936.1 hPa | 0 mm | 1.34 m/s, 245° | 861 W/m² | - |
| 1778014272 | 38.33° C | 19% | 936.1 hPa | 0 mm | 1.34 m/s, 228° | 853 W/m² | - |
| 1778014211 | 38.33° C | 19% | 936.1 hPa | 0 mm | 0.89 m/s, 229° | 862 W/m² | - |
| 1778014152 | 38.33° C | 18% | 936.1 hPa | 0 mm | 0.89 m/s, 226° | 873 W/m² | - |
| 1778014092 | 38.33° C | 19% | 936.2 hPa | 0 mm | 0.89 m/s, 227° | 871 W/m² | - |
| 1778014032 | 38.33° C | 19% | 936.2 hPa | 0 mm | 0.89 m/s, 226° | 877 W/m² | - |
* Rain latest hour (hover to see other rain measurements)
** Current wind speed in m/s (hover to see current wind gust speed)